Location: Argonnex
(45.9500°N, 6.1333°E)
Time: 09:43:31
(UTC+00:00)

Cosmos 2266 Rocket - Pass Details

Date: 27 September 2023
Orbit: 933 x 1008 km, 82.9° (Epoch: 10 December)

Event Time Altitude Azimuth Distance (km) Brightness Sun altitude
Exits shadow 04:32:38 12° 249° (WSW) 2,571 5.6 -10.5°
Maximum altitude 04:36:45 22° 295° (WNW) 2,017 5.2 -9.7°
Drops below altitude 10° 04:41:36 10° 344° (NNW) 2,784 6.3 -8.9°
Sets 04:44:49 0° 359° (N) 3,745 7.1 -8.4°
